Location: Sobotiste
(48.7170°N, 17.4000°E)
Time: 04:54:22
(UTC+02:00)

AO-73 - Pass Details

Date: 16 March 2026
Orbit: 514 x 567 km, 97.8° (Epoch: 12 April)

Event Time Altitude Azimuth Distance (km) Brightness Sun altitude
Rises 03:23:33 0° 17° (NNE) 2,671 ? -25.9°
Reaches altitude 10° 03:25:43 10° 23° (NNE) 1,769 ? -25.6°
Enters shadow 03:29:20 51° 93° (E) 659 ? -25.1°
